| time (UTC) | temp F | wind direction | speed MPH | gust MPH | rain 1hr in | rain 24hr in | rain mn in | humidity % | barometer mb |
| 20260904223802 | 66 | 344 | 3.0 | 9.0 | 0.00 | 0.00 | 0.00 | 78 | 1010.7 |
| 20260904223259 | 66 | 281 | 2.0 | 10.0 | 0.00 | 0.00 | 0.00 | 78 | 1010.7 |
| 20260904222758 | 66 | 237 | 2.0 | 10.0 | 0.00 | 0.00 | 0.00 | 76 | 1010.5 |
| 20260904222255 | 66 | 323 | 3.0 | 11.0 | 0.00 | 0.00 | 0.00 | 76 | 1010.5 |
| 20260904221754 | 67 | 262 | 4.0 | 11.0 | 0.00 | 0.00 | 0.00 | 76 | 1010.6 |
| 20260904221254 | 67 | 223 | 3.0 | 9.0 | 0.00 | 0.00 | 0.00 | 76 | 1010.6 |
| 20260904221016 | 67 | 298 | 3.0 | 9.0 | 0.00 | 0.00 | 0.00 | 75 | 1010.6 |
| 20260904220252 | 68 | 251 | 3.0 | 9.0 | 0.00 | 0.00 | 0.00 | 74 | 1010.5 |
| 20260904215752 | 68 | 198 | 4.0 | 8.0 | 0.00 | 0.00 | 0.00 | 74 | 1010.4 |
| 20260904215252 | 67 | 233 | 3.0 | 8.0 | 0.00 | 0.00 | 0.00 | 74 | 1010.5 |
| 20260904214752 | 67 | 283 | 3.0 | 8.0 | 0.00 | 0.00 | 0.00 | 74 | 1010.5 |
| 20260904214252 | 67 | 325 | 3.0 | 9.0 | 0.00 | 0.00 | 0.00 | 75 | 1010.6 |
| 20260904213754 | 67 | 243 | 4.0 | 12.0 | 0.00 | 0.00 | 0.00 | 74 | 1010.5 |
| 20260904213250 | 68 | 190 | 4.0 | 12.0 | 0.00 | 0.00 | 0.00 | 75 | 1010.4 |
| 20260904212750 | 68 | 276 | 3.0 | 9.0 | 0.00 | 0.00 | 0.00 | 74 | 1010.4 |
| 20260904212250 | 68 | 221 | 3.0 | 13.0 | 0.00 | 0.00 | 0.00 | 72 | 1010.4 |
| 20260904211750 | 68 | 248 | 3.0 | 13.0 | 0.00 | 0.00 | 0.00 | 72 | 1010.4 |
| 20260904211250 | 69 | 259 | 2.0 | 9.0 | 0.00 | 0.00 | 0.00 | 70 | 1010.5 |
| 20260904210748 | 69 | 264 | 2.0 | 9.0 | 0.00 | 0.00 | 0.00 | 70 | 1010.5 |
| 20260904210244 | 69 | 264 | 3.0 | 9.0 | 0.00 | 0.00 | 0.00 | 75 | 1010.4 |
| 20260904210008 | 69 | 331 | 3.0 | 9.0 | 0.00 | 0.00 | 0.00 | 69 | 1010.5 |
| 20260904205243 | 69 | 306 | 3.0 | 9.0 | 0.00 | 0.00 | 0.00 | 70 | 1010.6 |
| 20260904204743 | 69 | 259 | 3.0 | 9.0 | 0.00 | 0.00 | 0.00 | 71 | 1010.6 |
| 20260904204244 | 69 | 215 | 3.0 | 9.0 | 0.00 | 0.00 | 0.00 | 69 | 1010.6 |
| 20260904203744 | 70 | 309 | 3.0 | 8.0 | 0.00 | 0.00 | 0.00 | 67 | 1010.6 |
| 20260904203502 | 70 | 250 | 3.0 | 10.0 | 0.00 | 0.00 | 0.00 | 68 | 1010.6 |
| 20260904202743 | 70 | 269 | 4.0 | 10.0 | 0.00 | 0.00 | 0.00 | 71 | 1010.7 |
| 20260904202240 | 70 | 229 | 4.0 | 10.0 | 0.00 | 0.00 | 0.00 | 67 | 1010.7 |
| 20260904201739 | 70 | 259 | 4.0 | 10.0 | 0.00 | 0.00 | 0.00 | 66 | 1010.7 |
| 20260904201240 | 70 | 216 | 4.0 | 11.0 | 0.00 | 0.00 | 0.00 | 65 | 1010.6 |
| 20260904200740 | 70 | 290 | 4.0 | 11.0 | 0.00 | 0.00 | 0.00 | 67 | 1010.7 |
| 20260904200240 | 70 | 272 | 4.0 | 13.0 | 0.00 | 0.00 | 0.00 | 68 | 1010.7 |
| 20260904195744 | 70 | 16 | 6.0 | 13.0 | 0.00 | 0.00 | 0.00 | 66 | 1010.7 |
| 20260904195239 | 69 | 335 | 6.0 | 15.0 | 0.00 | 0.00 | 0.00 | 65 | 1010.7 |
| 20260904194740 | 70 | 242 | 5.0 | 15.0 | 0.00 | 0.00 | 0.00 | 63 | 1010.8 |
| 20260904194235 | 71 | 248 | 5.0 | 18.0 | 0.00 | 0.00 | 0.00 | 63 | 1010.7 |
| 20260904193736 | 72 | 14 | 5.0 | 18.0 | 0.00 | 0.00 | 0.00 | 60 | 1010.8 |
| 20260904193235 | 72 | 32 | 5.0 | 15.0 | 0.00 | 0.00 | 0.00 | 61 | 1010.7 |
| 20260904192733 | 71 | 252 | 5.0 | 14.0 | 0.00 | 0.00 | 0.00 | 62 | 1010.7 |
| 20260904192232 | 71 | 346 | 5.0 | 18.0 | 0.00 | 0.00 | 0.00 | 62 | 1010.7 |
| 20260904191731 | 71 | 289 | 4.0 | 18.0 | 0.00 | 0.00 | 0.00 | 61 | 1010.7 |
| 20260904191232 | 71 | 238 | 4.0 | 10.0 | 0.00 | 0.00 | 0.00 | 59 | 1010.8 |
| 20260904190732 | 72 | 254 | 6.0 | 12.0 | 0.00 | 0.00 | 0.00 | 65 | 1010.9 |
| 20260904190234 | 69 | 297 | 5.0 | 12.0 | 0.00 | 0.00 | 0.00 | 70 | 1010.9 |
| 20260904185732 | 70 | 236 | 4.0 | 12.0 | 0.00 | 0.00 | 0.00 | 69 | 1010.9 |
| 20260904185230 | 70 | 252 | 5.0 | 13.0 | 0.00 | 0.00 | 0.00 | 67 | 1011.0 |
| 20260904184953 | 71 | 294 | 5.0 | 13.0 | 0.00 | 0.00 | 0.00 | 66 | 1011.0 |
| 20260904184223 | 71 | 355 | 4.0 | 11.0 | 0.00 | 0.00 | 0.00 | 69 | 1011.0 |
| 20260904183717 | 70 | 271 | 5.0 | 10.0 | 0.00 | 0.00 | 0.00 | 69 | 1011.0 |
| 20260904183211 | 71 | 212 | 5.0 | 10.0 | 0.00 | 0.00 | 0.00 | 67 | 1011.0 |
| 20260904182711 | 72 | 331 | 4.0 | 9.0 | 0.00 | 0.00 | 0.00 | 66 | 1011.0 |
| 20260904182212 | 73 | 281 | 5.0 | 12.0 | 0.00 | 0.00 | 0.00 | 63 | 1011.0 |
| 20260904181940 | 72 | 137 | 5.0 | 14.0 | 0.00 | 0.00 | 0.00 | 65 | 1011.0 |
| 20260904181210 | 71 | 299 | 5.0 | 14.0 | 0.00 | 0.00 | 0.00 | 65 | 1011.0 |
| 20260904180707 | 72 | 286 | 5.0 | 16.0 | 0.00 | 0.00 | 0.00 | 64 | 1011.1 |
| 20260904180433 | 71 | 330 | 4.0 | 16.0 | 0.00 | 0.00 | 0.00 | 66 | 1010.9 |
| 20260904175712 | 71 | 28 | 4.0 | 11.0 | 0.00 | 0.00 | 0.00 | 68 | 1011.0 |
| 20260904175207 | 71 | 265 | 5.0 | 14.0 | 0.00 | 0.00 | 0.00 | 67 | 1010.9 |
| 20260904174707 | 72 | 232 | 6.0 | 15.0 | 0.00 | 0.00 | 0.00 | 65 | 1011.2 |
| 20260904174207 | 72 | 237 | 7.0 | 15.0 | 0.00 | 0.00 | 0.00 | 70 | 1011.1 |
| 20260904173707 | 71 | 270 | 5.0 | 12.0 | 0.00 | 0.00 | 0.00 | 65 | 1011.1 |
| 20260904173207 | 71 | 192 | 4.0 | 14.0 | 0.00 | 0.00 | 0.00 | 69 | 1011.1 |
| 20260904172706 | 71 | 30 | 4.0 | 14.0 | 0.00 | 0.00 | 0.00 | 64 | 1011.1 |
| 20260904172206 | 71 | 231 | 5.0 | 13.0 | 0.00 | 0.00 | 0.00 | 65 | 1011.1 |
| 20260904171700 | 71 | 173 | 5.0 | 13.0 | 0.00 | 0.00 | 0.00 | 66 | 1011.2 |
| 20260904171150 | 71 | 225 | 3.0 | 9.0 | 0.00 | 0.00 | 0.00 | 68 | 1011.2 |
| 20260904170644 | 71 | 86 | 3.0 | 9.0 | 0.00 | 0.00 | 0.00 | 66 | 1011.0 |
| 20260904170412 | 70 | 244 | 4.0 | 9.0 | 0.00 | 0.00 | 0.00 | 66 | 1011.1 |
| 20260904165628 | 70 | 234 | 4.0 | 9.0 | 0.00 | 0.00 | 0.00 | 68 | 1011.0 |
| 20260904165122 | 71 | 268 | 4.0 | 9.0 | 0.00 | 0.00 | 0.00 | 67 | 1011.0 |
| 20260904164617 | 72 | 257 | 4.0 | 12.0 | 0.00 | 0.00 | 0.00 | 63 | 1010.8 |
| 20260904164106 | 72 | 237 | 4.0 | 12.0 | 0.00 | 0.00 | 0.00 | 65 | 1011.0 |
| 20260904163559 | 70 | 340 | 4.0 | 11.0 | 0.00 | 0.00 | 0.00 | 69 | 1011.1 |
| 20260904163054 | 69 | 286 | 4.0 | 10.0 | 0.00 | 0.00 | 0.00 | 72 | 1011.2 |
| 20260904162805 | 69 | 296 | 4.0 | 9.0 | 0.00 | 0.00 | 0.00 | 72 | 1011.2 |
| 20260904162038 | 70 | 209 | 4.0 | 13.0 | 0.00 | 0.00 | 0.00 | 69 | 1011.2 |
| 20260904161532 | 72 | 273 | 5.0 | 13.0 | 0.00 | 0.00 | 0.00 | 66 | 1011.2 |
| 20260904161022 | 71 | 286 | 5.0 | 12.0 | 0.00 | 0.00 | 0.00 | 71 | 1011.2 |
| 20260904160515 | 69 | 277 | 5.0 | 11.0 | 0.00 | 0.00 | 0.00 | 73 | 1011.2 |
| 20260904160010 | 69 | 215 | 4.0 | 11.0 | 0.00 | 0.00 | 0.00 | 72 | 1011.3 |
| 20260904155500 | 70 | 295 | 3.0 | 8.0 | 0.00 | 0.00 | 0.00 | 68 | 1011.4 |
| 20260904155214 | 71 | 257 | 4.0 | 10.0 | 0.00 | 0.00 | 0.00 | 68 | 1011.3 |
| 20260904154448 | 71 | 244 | 4.0 | 10.0 | 0.00 | 0.00 | 0.00 | 68 | 1011.5 |
| 20260904153943 | 72 | 253 | 5.0 | 11.0 | 0.00 | 0.00 | 0.00 | 70 | 1011.5 |
| 20260904153709 | 70 | 248 | 5.0 | 11.0 | 0.00 | 0.00 | 0.00 | 71 | 1011.5 |
| 20260904152941 | 68 | 317 | 5.0 | 12.0 | 0.00 | 0.00 | 0.00 | 75 | 1011.6 |
| 20260904152440 | 69 | 235 | 6.0 | 13.0 | 0.00 | 0.00 | 0.00 | 74 | 1011.7 |
| 20260904151939 | 69 | 253 | 6.0 | 14.0 | 0.00 | 0.00 | 0.00 | 71 | 1011.6 |
| 20260904150935 | 70 | 251 | 5.0 | 11.0 | 0.00 | 0.00 | 0.00 | 72 | 1011.7 |
| 20260904150432 | 68 | 229 | 4.0 | 11.0 | 0.00 | 0.00 | 0.00 | 74 | 1011.6 |
| 20260904145933 | 69 | 240 | 3.0 | 7.0 | 0.00 | 0.00 | 0.00 | 73 | 1011.6 |
| 20260904145436 | 67 | 246 | 2.0 | 7.0 | 0.00 | 0.00 | 0.00 | 77 | 1011.6 |
| 20260904144933 | 66 | 238 | 2.0 | 9.0 | 0.00 | 0.00 | 0.00 | 77 | 1011.6 |
| 20260904144656 | 67 | 319 | 3.0 | 12.0 | 0.00 | 0.00 | 0.00 | 74 | 1011.5 |
| 20260904143934 | 69 | 244 | 3.0 | 12.0 | 0.00 | 0.00 | 0.00 | 72 | 1011.6 |
| 20260904143652 | 69 | 303 | 4.0 | 8.0 | 0.00 | 0.00 | 0.00 | 77 | 1011.6 |
| 20260904142932 | 69 | 48 | 3.0 | 8.0 | 0.00 | 0.00 | 0.00 | 76 | 1011.5 |
| 20260904142429 | 69 | 91 | 3.0 | 7.0 | 0.00 | 0.00 | 0.00 | 78 | 1011.5 |
| 20260904142151 | 69 | 338 | 2.0 | 8.0 | 0.00 | 0.00 | 0.00 | 80 | 1011.5 |
| 20260904141426 | 68 | 220 | 3.0 | 8.0 | 0.00 | 0.00 | 0.00 | 78 | 1011.5 |
| 20260904140931 | 68 | 248 | 4.0 | 9.0 | 0.00 | 0.00 | 0.00 | 83 | 1011.5 |
| 20260904140427 | 67 | 231 | 4.0 | 9.0 | 0.00 | 0.00 | 0.00 | 80 | 1011.4 |
| 20260904135926 | 68 | 304 | 3.0 | 10.0 | 0.00 | 0.00 | 0.00 | 80 | 1011.4 |
| 20260904135423 | 67 | 10 | 4.0 | 14.0 | 0.00 | 0.00 | 0.00 | 81 | 1011.4 |
| 20260904134922 | 67 | 232 | 4.0 | 14.0 | 0.00 | 0.00 | 0.00 | 82 | 1011.4 |
| 20260904134421 | 67 | 271 | 4.0 | 12.0 | 0.00 | 0.00 | 0.00 | 84 | 1011.4 |
| 20260904133921 | 66 | 217 | 3.0 | 11.0 | 0.00 | 0.00 | 0.00 | 84 | 1011.5 |
| 20260904133639 | 66 | 331 | 2.0 | 8.0 | 0.00 | 0.00 | 0.00 | 87 | 1011.4 |
| 20260904132921 | 65 | 70 | 3.0 | 10.0 | 0.00 | 0.00 | 0.00 | 87 | 1011.4 |
| 20260904132423 | 65 | 182 | 3.0 | 10.0 | 0.00 | 0.00 | 0.00 | 87 | 1011.3 |
| 20260904132148 | 64 | 221 | 4.0 | 10.0 | 0.00 | 0.00 | 0.00 | 88 | 1011.4 |
| 20260904131422 | 64 | 271 | 4.0 | 10.0 | 0.00 | 0.00 | 0.00 | 89 | 1011.4 |
| 20260904130922 | 64 | 263 | 4.0 | 9.0 | 0.00 | 0.00 | 0.00 | 89 | 1011.4 |
| 20260904130415 | 64 | 306 | 3.0 | 12.0 | 0.00 | 0.00 | 0.00 | 90 | 1011.4 |
| 20260904130134 | 64 | 323 | 3.0 | 12.0 | 0.00 | 0.00 | 0.00 | 91 | 1011.5 |
| 20260904125402 | 63 | 5 | 2.0 | 10.0 | 0.00 | 0.00 | 0.00 | 91 | 1011.5 |
| 20260904125116 | 63 | 264 | 2.0 | 10.0 | 0.00 | 0.00 | 0.00 | 91 | 1011.5 |
| 20260904124347 | 63 | 315 | 2.0 | 5.0 | 0.00 | 0.00 | 0.00 | 92 | 1011.5 |
| 20260904123841 | 62 | 5 | 3.0 | 9.0 | 0.00 | 0.00 | 0.00 | 93 | 1011.5 |
| 20260904123331 | 62 | 304 | 3.0 | 9.0 | 0.00 | 0.00 | 0.00 | 94 | 1011.5 |
| 20260904122824 | 62 | 14 | 3.0 | 8.0 | 0.00 | 0.00 | 0.00 | 95 | 1011.5 |
| 20260904122318 | 61 | 321 | 3.0 | 9.0 | 0.00 | 0.00 | 0.00 | 96 | 1011.5 |
| 20260904122031 | 60 | 275 | 3.0 | 9.0 | 0.00 | 0.00 | 0.00 | 97 | 1011.5 |
| 20260904121532 | 60 | 290 | 2.0 | 8.0 | 0.00 | 0.00 | 0.00 | 97 | 1011.5 |
| 20260904120807 | 60 | 258 | 2.0 | 8.0 | 0.00 | 0.00 | 0.00 | 97 | 1011.5 |
| 20260904120304 | 60 | 313 | 2.0 | 5.0 | 0.00 | 0.00 | 0.00 | 97 | 1011.5 |
| 20260904115804 | 60 | 320 | 2.0 | 7.0 | 0.00 | 0.00 | 0.00 | 98 | 1011.6 |
| 20260904115306 | 60 | 277 | 2.0 | 7.0 | 0.00 | 0.00 | 0.00 | 98 | 1011.7 |
| 20260904115027 | 59 | 263 | 3.0 | 9.0 | 0.00 | 0.00 | 0.00 | 98 | 1011.7 |
| 20260904114303 | 59 | 296 | 3.0 | 9.0 | 0.00 | 0.00 | 0.00 | 98 | 1011.6 |
| 20260904113803 | 59 | 321 | 3.0 | 9.0 | 0.00 | 0.00 | 0.00 | 98 | 1011.6 |
| 20260904113518 | 59 | 224 | 4.0 | 10.0 | 0.00 | 0.00 | 0.00 | 98 | 1011.5 |
| 20260904112803 | 59 | 5 | 3.0 | 10.0 | 0.00 | 0.00 | 0.00 | 98 | 1011.5 |
| 20260904112305 | 58 | 309 | 3.0 | 9.0 | 0.00 | 0.00 | 0.00 | 98 | 1011.4 |
| 20260904111802 | 59 | 289 | 2.0 | 9.0 | 0.00 | 0.00 | 0.00 | 98 | 1011.2 |
| 20260904111533 | 58 | 279 | 2.0 | 7.0 | 0.00 | 0.00 | 0.00 | 98 | 1011.2 |
| 20260904110803 | 58 | 297 | 3.0 | 13.0 | 0.00 | 0.00 | 0.00 | 98 | 1011.2 |
| 20260904110253 | 58 | 279 | 3.0 | 13.0 | 0.00 | 0.00 | 0.00 | 98 | 1011.2 |
| 20260904105751 | 58 | 240 | 2.0 | 7.0 | 0.00 | 0.00 | 0.00 | 98 | 1010.9 |
| 20260904105251 | 57 | 305 | 1.0 | 4.0 | 0.00 | 0.00 | 0.00 | 98 | 1010.9 |
| 20260904104751 | 57 | 311 | 1.0 | 6.0 | 0.00 | 0.00 | 0.00 | 98 | 1010.9 |
| 20260904104251 | 57 | 315 | 2.0 | 8.0 | 0.00 | 0.00 | 0.00 | 98 | 1010.9 |
| 20260904103751 | 57 | 241 | 2.0 | 8.0 | 0.00 | 0.00 | 0.00 | 98 | 1010.8 |
| 20260904103251 | 58 | 303 | 2.0 | 9.0 | 0.00 | 0.00 | 0.00 | 98 | 1010.8 |
| 20260904102751 | 58 | 294 | 2.0 | 9.0 | 0.00 | 0.00 | 0.00 | 98 | 1010.7 |
| 20260904102250 | 57 | 325 | 1.0 | 5.0 | 0.00 | 0.00 | 0.00 | 98 | 1010.8 |
| 20260904101751 | 58 | 325 | 1.0 | 5.0 | 0.00 | 0.00 | 0.00 | 98 | 1010.7 |
| 20260904101250 | 58 | 308 | 1.0 | 5.0 | 0.00 | 0.00 | 0.00 | 98 | 1010.7 |
| 20260904100750 | 57 | 256 | 1.0 | 6.0 | 0.00 | 0.00 | 0.00 | 98 | 1010.7 |
| 20260904100250 | 57 | 265 | 1.0 | 6.0 | 0.00 | 0.00 | 0.00 | 98 | 1010.7 |
| 20260904095751 | 57 | 284 | 1.0 | 4.0 | 0.00 | 0.00 | 0.00 | 98 | 1010.6 |
| 20260904095251 | 57 | 269 | 2.0 | 6.0 | 0.00 | 0.00 | 0.00 | 98 | 1010.6 |
| 20260904094751 | 58 | 281 | 2.0 | 6.0 | 0.00 | 0.00 | 0.00 | 98 | 1010.6 |
| 20260904094251 | 58 | 247 | 1.0 | 4.0 | 0.00 | 0.00 | 0.00 | 98 | 1010.6 |
| 20260904093751 | 58 | 257 | 2.0 | 7.0 | 0.00 | 0.00 | 0.00 | 98 | 1010.6 |
| 20260904093507 | 58 | 290 | 2.0 | 7.0 | 0.00 | 0.00 | 0.00 | 98 | 1010.6 |
| 20260904092751 | 58 | 256 | 2.0 | 6.0 | 0.00 | 0.00 | 0.00 | 98 | 1010.6 |
| 20260904092250 | 57 | 294 | 1.0 | 3.0 | 0.00 | 0.00 | 0.00 | 98 | 1010.7 |
| 20260904091751 | 57 | 313 | 0.0 | 2.0 | 0.00 | 0.00 | 0.00 | 98 | 1010.6 |
| 20260904091251 | 57 | 314 | 0.0 | 2.0 | 0.00 | 0.00 | 0.00 | 97 | 1010.6 |
| 20260904090750 | 57 | 314 | 0.0 | 2.0 | 0.00 | 0.00 | 0.00 | 97 | 1010.5 |
| 20260904090250 | 57 | 315 | 0.0 | 3.0 | 0.00 | 0.00 | 0.00 | 97 | 1010.5 |
| 20260904085750 | 57 | 315 | 0.0 | 3.0 | 0.00 | 0.00 | 0.00 | 97 | 1010.4 |
| 20260904085251 | 58 | 251 | 1.0 | 3.0 | 0.00 | 0.00 | 0.00 | 97 | 1010.4 |
| 20260904084753 | 58 | 250 | 1.0 | 3.0 | 0.00 | 0.00 | 0.00 | 97 | 1010.4 |
| 20260904084251 | 58 | 251 | 1.0 | 7.0 | 0.00 | 0.00 | 0.00 | 97 | 1010.5 |
| 20260904083748 | 58 | 251 | 2.0 | 7.0 | 0.00 | 0.00 | 0.00 | 97 | 1010.4 |
| 20260904082746 | 59 | 328 | 2.0 | 8.0 | 0.00 | 0.00 | 0.00 | 97 | 1010.2 |
| 20260904082246 | 58 | 74 | 2.0 | 8.0 | 0.00 | 0.00 | 0.00 | 97 | 1010.4 |
| 20260904081746 | 59 | 238 | 2.0 | 7.0 | 0.00 | 0.00 | 0.00 | 97 | 1010.5 |
| 20260904081246 | 59 | 30 | 3.0 | 8.0 | 0.00 | 0.00 | 0.00 | 97 | 1010.4 |
| 20260904080747 | 59 | 25 | 2.0 | 10.0 | 0.00 | 0.00 | 0.00 | 97 | 1010.4 |
| 20260904080240 | 58 | 335 | 2.0 | 10.0 | 0.00 | 0.00 | 0.00 | 97 | 1010.4 |
| 20260904075731 | 58 | 309 | 2.0 | 8.0 | 0.00 | 0.00 | 0.00 | 97 | 1010.2 |
| 20260904075449 | 59 | 332 | 2.0 | 7.0 | 0.00 | 0.00 | 0.00 | 97 | 1010.2 |
| 20260904074719 | 59 | 310 | 2.0 | 6.0 | 0.00 | 0.00 | 0.00 | 97 | 1010.4 |
| 20260904074209 | 59 | 261 | 2.0 | 6.0 | 0.00 | 0.00 | 0.00 | 97 | 1010.4 |
| 20260904073703 | 58 | 0 | 2.0 | 6.0 | 0.00 | 0.00 | 0.00 | 97 | 1010.2 |
| 20260904073156 | 58 | 261 | 2.0 | 6.0 | 0.00 | 0.00 | 0.00 | 97 | 1010.4 |
| 20260904072654 | 58 | 228 | 1.0 | 4.0 | 0.00 | 0.00 | 0.00 | 97 | 1010.5 |
| 20260904072415 | 58 | 13 | 1.0 | 4.0 | 0.00 | 0.00 | 0.00 | 97 | 1010.4 |
| 20260904071652 | 58 | 246 | 1.0 | 4.0 | 0.00 | 0.00 | 0.00 | 97 | 1010.4 |
| 20260904071150 | 58 | 54 | 0.0 | 2.0 | 0.00 | 0.00 | 0.00 | 97 | 1010.2 |
| 20260904070648 | 58 | 54 | 0.0 | 3.0 | 0.00 | 0.00 | 0.00 | 96 | 1010.1 |
| 20260904070146 | 58 | 54 | 0.0 | 3.0 | 0.00 | 0.00 | 0.00 | 96 | 1010.0 |
| 20260904065645 | 58 | 55 | 1.0 | 3.0 | 0.00 | 0.01 | 0.00 | 96 | 1010.2 |
| 20260904065145 | 58 | 55 | 1.0 | 4.0 | 0.00 | 0.01 | 0.00 | 95 | 1010.2 |
| 20260904064644 | 59 | 55 | 1.0 | 4.0 | 0.00 | 0.01 | 0.00 | 95 | 1010.2 |
| 20260904064147 | 59 | 236 | 1.0 | 2.0 | 0.00 | 0.01 | 0.00 | 95 | 1010.4 |
| 20260904063644 | 59 | 236 | 1.0 | 3.0 | 0.00 | 0.01 | 0.00 | 95 | 1010.4 |
| 20260904063144 | 60 | 236 | 1.0 | 3.0 | 0.00 | 0.01 | 0.00 | 95 | 1010.4 |
| 20260904062907 | 60 | 218 | 1.0 | 3.0 | 0.00 | 0.01 | 0.00 | 94 | 1010.4 |
| 20260904062358 | 60 | 209 | 1.0 | 3.0 | 0.00 | 0.01 | 0.00 | 95 | 1010.4 |
| 20260904061640 | 60 | 224 | 1.0 | 3.0 | 0.00 | 0.01 | 0.00 | 94 | 1010.5 |
| 20260904061358 | 60 | 224 | 1.0 | 3.0 | 0.00 | 0.01 | 0.00 | 94 | 1010.6 |
| 20260904060631 | 61 | 225 | 1.0 | 3.0 | 0.00 | 0.01 | 0.00 | 93 | 1010.6 |
| 20260904060128 | 61 | 225 | 1.0 | 2.0 | 0.00 | 0.02 | 0.00 | 93 | 1010.7 |
| 20260904055850 | 62 | 246 | 1.0 | 9.0 | 0.00 | 0.02 | 0.00 | 92 | 1010.8 |
| 20260904055358 | 62 | 246 | 2.0 | 9.0 | 0.00 | 0.03 | 0.00 | 92 | 1010.7 |
| 20260904054628 | 62 | 351 | 3.0 | 8.0 | 0.00 | 0.03 | 0.00 | 91 | 1010.7 |
| 20260904054128 | 63 | 225 | 4.0 | 13.0 | 0.00 | 0.03 | 0.00 | 90 | 1010.6 |
| 20260904053629 | 63 | 239 | 4.0 | 13.0 | 0.00 | 0.03 | 0.00 | 90 | 1010.7 |
| 20260904053128 | 63 | 248 | 4.0 | 13.0 | 0.00 | 0.03 | 0.00 | 91 | 1010.6 |
| 20260904052628 | 62 | 247 | 3.0 | 12.0 | 0.00 | 0.04 | 0.00 | 91 | 1010.5 |
| 20260904052356 | 62 | 209 | 3.0 | 9.0 | 0.00 | 0.05 | 0.00 | 91 | 1010.5 |
| 20260904051628 | 62 | 251 | 3.0 | 10.0 | 0.00 | 0.07 | 0.00 | 91 | 1010.6 |
| 20260904051130 | 62 | 277 | 3.0 | 12.0 | 0.00 | 0.09 | 0.00 | 92 | 1010.6 |
| 20260904050853 | 62 | 215 | 3.0 | 12.0 | 0.00 | 0.10 | 0.00 | 93 | 1010.8 |
| 20260904050128 | 61 | 230 | 4.0 | 9.0 | 0.00 | 0.10 | 0.00 | 93 | 1010.9 |
| 20260904045628 | 61 | 267 | 4.0 | 10.0 | 0.00 | 0.11 | 0.00 | 93 | 1011.1 |
| 20260904045122 | 61 | 251 | 4.0 | 10.0 | 0.00 | 0.11 | 0.00 | 93 | 1011.1 |
| 20260904044833 | 62 | 248 | 3.0 | 9.0 | 0.00 | 0.11 | 0.00 | 93 | 1011.1 |
| 20260904044341 | 61 | 240 | 3.0 | 9.0 | 0.00 | 0.11 | 0.00 | 94 | 1011.2 |
| 20260904043610 | 61 | 248 | 3.0 | 8.0 | 0.00 | 0.11 | 0.00 | 94 | 1011.1 |
| 20260904043108 | 61 | 270 | 4.0 | 8.0 | 0.00 | 0.11 | 0.00 | 94 | 1011.2 |
| 20260904042608 | 61 | 255 | 4.0 | 8.0 | 0.00 | 0.11 | 0.00 | 94 | 1011.2 |
| 20260904042108 | 62 | 253 | 4.0 | 8.0 | 0.00 | 0.12 | 0.00 | 93 | 1011.2 |
| 20260904041609 | 62 | 267 | 4.0 | 8.0 | 0.00 | 0.12 | 0.00 | 93 | 1011.2 |
| 20260904041110 | 62 | 252 | 3.0 | 8.0 | 0.00 | 0.12 | 0.00 | 93 | 1011.2 |
| 20260904040829 | 62 | 246 | 4.0 | 8.0 | 0.00 | 0.12 | 0.00 | 93 | 1011.4 |
| 20260904040108 | 62 | 244 | 3.0 | 8.0 | 0.00 | 0.13 | 0.00 | 93 | 1011.3 |
| 20260904035829 | 62 | 247 | 3.0 | 9.0 | 0.00 | 0.13 | 0.13 | 94 | 1011.4 |
| 20260904035106 | 62 | 255 | 4.0 | 10.0 | 0.00 | 0.13 | 0.13 | 94 | 1011.3 |
| 20260904034606 | 61 | 306 | 4.0 | 11.0 | 0.00 | 0.13 | 0.13 | 94 | 1011.3 |
| 20260904034337 | 61 | 275 | 4.0 | 12.0 | 0.00 | 0.13 | 0.13 | 95 | 1011.4 |
| 20260904033606 | 61 | 237 | 4.0 | 12.0 | 0.00 | 0.14 | 0.13 | 95 | 1011.3 |
| 20260904033107 | 61 | 260 | 4.0 | 10.0 | 0.00 | 0.14 | 0.13 | 95 | 1011.4 |
| 20260904032601 | 61 | 248 | 3.0 | 7.0 | 0.00 | 0.14 | 0.13 | 95 | 1011.4 |
| 20260904032051 | 61 | 260 | 3.0 | 7.0 | 0.00 | 0.14 | 0.13 | 95 | 1011.5 |
| 20260904031545 | 60 | 251 | 3.0 | 8.0 | 0.00 | 0.14 | 0.13 | 95 | 1011.6 |
| 20260904031039 | 60 | 262 | 3.0 | 8.0 | 0.00 | 0.14 | 0.13 | 95 | 1011.6 |
| 20260904030754 | 61 | 267 | 4.0 | 9.0 | 0.00 | 0.14 | 0.13 | 95 | 1011.7 |
| 20260904030023 | 60 | 249 | 5.0 | 10.0 | 0.00 | 0.15 | 0.13 | 95 | 1011.5 |
| 20260904025517 | 60 | 221 | 4.0 | 10.0 | 0.00 | 0.15 | 0.13 | 95 | 1011.5 |
| 20260904025235 | 60 | 289 | 4.0 | 9.0 | 0.00 | 0.15 | 0.13 | 94 | 1011.4 |
| 20260904024501 | 61 | 243 | 3.0 | 6.0 | 0.00 | 0.15 | 0.13 | 94 | 1011.5 |
| 20260904023955 | 61 | 254 | 3.0 | 8.0 | 0.00 | 0.15 | 0.13 | 94 | 1011.5 |
| 20260904023445 | 61 | 250 | 3.0 | 8.0 | 0.00 | 0.15 | 0.13 | 94 | 1011.6 |
| 20260904022939 | 61 | 243 | 3.0 | 7.0 | 0.00 | 0.15 | 0.13 | 94 | 1011.6 |
| 20260904022433 | 61 | 264 | 3.0 | 7.0 | 0.00 | 0.15 | 0.13 | 94 | 1011.7 |
| 20260904021923 | 61 | 248 | 3.0 | 8.0 | 0.00 | 0.15 | 0.13 | 93 | 1011.7 |
| 20260904021417 | 62 | 260 | 3.0 | 8.0 | 0.00 | 0.15 | 0.13 | 94 | 1011.8 |
| 20260904020911 | 62 | 238 | 3.0 | 8.0 | 0.00 | 0.16 | 0.13 | 94 | 1011.9 |
| 20260904020401 | 62 | 263 | 4.0 | 8.0 | 0.00 | 0.16 | 0.13 | 94 | 1011.8 |
| 20260904020121 | 62 | 257 | 3.0 | 6.0 | 0.00 | 0.16 | 0.13 | 93 | 1011.8 |
| 20260904015609 | 62 | 231 | 3.0 | 8.0 | 0.00 | 0.16 | 0.13 | 93 | 1011.8 |
| 20260904015058 | 62 | 281 | 3.0 | 8.0 | 0.00 | 0.16 | 0.13 | 93 | 1011.9 |
| 20260904014601 | 62 | 294 | 3.0 | 7.0 | 0.00 | 0.16 | 0.13 | 93 | 1012.0 |
| 20260904013827 | 62 | 255 | 3.0 | 7.0 | 0.00 | 0.16 | 0.13 | 92 | 1012.0 |
| 20260904013316 | 62 | 267 | 3.0 | 7.0 | 0.00 | 0.16 | 0.13 | 92 | 1012.0 |
| 20260904012811 | 63 | 259 | 4.0 | 8.0 | 0.00 | 0.16 | 0.13 | 92 | 1012.0 |
| 20260904012306 | 63 | 249 | 4.0 | 8.0 | 0.00 | 0.16 | 0.13 | 92 | 1012.1 |
| 20260904011801 | 63 | 244 | 4.0 | 9.0 | 0.00 | 0.16 | 0.13 | 92 | 1011.9 |
| 20260904011514 | 62 | 243 | 4.0 | 9.0 | 0.00 | 0.16 | 0.13 | 93 | 1011.8 |
| 20260904010757 | 62 | 263 | 4.0 | 8.0 | 0.00 | 0.16 | 0.13 | 93 | 1011.8 |
| 20260904010256 | 62 | 251 | 4.0 | 8.0 | 0.00 | 0.16 | 0.13 | 93 | 1011.8 |
| 20260904005756 | 62 | 240 | 4.0 | 8.0 | 0.00 | 0.16 | 0.13 | 93 | 1011.8 |
| 20260904005256 | 62 | 257 | 3.0 | 9.0 | 0.00 | 0.16 | 0.13 | 93 | 1011.9 |
| 20260904005020 | 62 | 277 | 4.0 | 9.0 | 0.00 | 0.16 | 0.13 | 93 | 1011.9 |
| 20260904004254 | 62 | 248 | 3.0 | 9.0 | 0.00 | 0.16 | 0.13 | 92 | 1011.8 |
| 20260904003754 | 62 | 254 | 3.0 | 9.0 | 0.00 | 0.16 | 0.13 | 93 | 1011.8 |
| 20260904003255 | 62 | 246 | 3.0 | 8.0 | 0.00 | 0.16 | 0.13 | 93 | 1011.8 |
| 20260904002753 | 63 | 246 | 3.0 | 8.0 | 0.00 | 0.16 | 0.13 | 92 | 1011.9 |
| 20260904002254 | 63 | 259 | 3.0 | 8.0 | 0.00 | 0.16 | 0.13 | 92 | 1011.7 |
| 20260904001250 | 63 | 259 | 3.0 | 7.0 | 0.00 | 0.16 | 0.13 | 92 | 1011.6 |
| 20260904000748 | 63 | 258 | 4.0 | 9.0 | 0.00 | 0.16 | 0.13 | 91 | 1011.5 |
| 20260904000248 | 63 | 254 | 4.0 | 9.0 | 0.00 | 0.16 | 0.13 | 92 | 1011.5 |
| 20260903235742 | 63 | 259 | 3.0 | 8.0 | 0.00 | 0.16 | 0.13 | 91 | 1011.3 |
| 20260903235243 | 63 | 237 | 3.0 | 8.0 | 0.00 | 0.16 | 0.13 | 92 | 1011.2 |
| 20260903234745 | 63 | 269 | 3.0 | 7.0 | 0.00 | 0.16 | 0.13 | 93 | 1011.1 |
| 20260903234240 | 63 | 288 | 2.0 | 6.0 | 0.00 | 0.16 | 0.13 | 93 | 1010.9 |
| 20260903233744 | 63 | 250 | 2.0 | 4.0 | 0.00 | 0.16 | 0.13 | 93 | 1011.0 |
| 20260903233506 | 63 | 250 | 2.0 | 6.0 | 0.00 | 0.16 | 0.13 | 92 | 1011.0 |
| 20260903232740 | 63 | 242 | 3.0 | 7.0 | 0.00 | 0.16 | 0.13 | 91 | 1011.0 |
| 20260903232234 | 64 | 252 | 3.0 | 7.0 | 0.00 | 0.16 | 0.13 | 91 | 1011.1 |
| 20260903231956 | 64 | 257 | 3.0 | 5.0 | 0.00 | 0.16 | 0.13 | 91 | 1011.1 |
| 20260903231454 | 64 | 259 | 3.0 | 5.0 | 0.00 | 0.16 | 0.13 | 92 | 1011.2 |
| 20260903230739 | 64 | 249 | 3.0 | 4.0 | 0.00 | 0.16 | 0.13 | 91 | 1011.2 |
| 20260903230236 | 64 | 249 | 3.0 | 7.0 | 0.00 | 0.16 | 0.13 | 90 | 1011.1 |
| 20260903225735 | 65 | 252 | 3.0 | 7.0 | 0.00 | 0.16 | 0.13 | 89 | 1011.1 |
| 20260903225458 | 65 | 245 | 2.0 | 5.0 | 0.00 | 0.16 | 0.13 | 87 | 1011.1 |
| 20260903224734 | 66 | 244 | 2.0 | 8.0 | 0.00 | 0.16 | 0.13 | 87 | 1011.2 |
| 20260903224230 | 66 | 265 | 2.0 | 8.0 | 0.00 | 0.16 | 0.13 | 84 | 1011.3 |